Regional Weather Roundup
Issued by NWS Spokane, WA

Home | Current Version | Previous Version | Text Only | Print | Product List | Glossary On
Versions: 1 2 3 4 5 6 7 8 9 10 11 12 13 14 15 16 17 18 19 20 21 22 23 24 25 26 27 28 29 30 31 32 33 34 35 36 37 38 39 40 41 42 43 44 45 46 47 48 49 50
442
NZUS01 KOTX 211905
RWROTX

Eastern Washington/Northern Idaho Roundup
National Weather Service, Spokane WA
1100 AM PST SAT JAN 21 2017

Note: "fair" indicated few or no clouds below 12,000 feet with no
significant weather and/or obstructions to visibility.

...Northeast Washington and Northern Idaho Panhandle...

CITY           SKY/WX    TMP DP  RH WIND       PRES   REMARKS
Spokane Intl   PTSUNNY   37  31  78 NE3       29.46R
Spokane Downto CLOUDY    37  33  85 CALM      29.48R
Coeur d Alene  CLOUDY    35  32  88 N8        29.49R WCI  29
Deer Park      CLOUDY    35  31  85 NE7       29.48R WCI  29
Sandpoint        N/A     34  32  93 NE5       29.50R WCI  30
Bonners Ferry  FAIR      32  28  86 CALM      29.51R

...Southeast Washington and southern Idaho Panhandle...

CITY           SKY/WX    TMP DP  RH WIND       PRES   REMARKS
Walla Walla    MOSUNNY   40  33  76 CALM      29.46R
Pullman/Moscow CLOUDY    36  30  79 E8        29.48R
Lewiston       CLOUDY    40  31  70 E5        29.50R
Lowell           N/A     35  32  88 NW3       29.56R
Grangeville    CLOUDY    37  28  70 S9G16     29.46R

...Columbia Basin...

CITY           SKY/WX    TMP DP  RH WIND       PRES   REMARKS
Ephrata        CLOUDY    35  30  82 N5        29.47R
Moses Lake     CLOUDY    36  32  85 CALM      29.48R
Pasco          MOSUNNY   34  31  88 CALM      29.51R FOG
Richland       CLEAR     37  32  83 CALM      29.50R
Hermiston      SUNNY     34  33  96 CALM      29.48R FOG
Pendleton      MOSUNNY   37  33  85 SE6       29.44R FOG

...East Slopes Cascades...

CITY           SKY/WX    TMP DP  RH WIND       PRES   REMARKS
The Dalles     PTSUNNY   36  33  89 E7        29.49R FOG
Yakima         PTSUNNY   38  35  89 S3        29.47R FOG
Ellensburg     CLOUDY    37  34  89 CALM      29.44R FOG
Wenatchee      CLOUDY    34  34 100 CALM      29.46S FOG
Omak           LGT SNOW  35  31  85 NE5       29.48R FOG
Sunnyside      CLEAR     32  30  93 SW3       29.48R FOG

...Southern British Columbia...

CITY           SKY/WX    TMP DP  RH WIND       PRES   REMARKS

...Western Montana...

CITY           SKY/WX    TMP DP  RH WIND       PRES   REMARKS
Kalispell      CLOUDY    24  23  96 CALM      29.50R
Missoula       LGT SNOW  22  21  96 CALM      29.53R FOG

...Neighboring Cities...

CITY           SKY/WX    TMP DP  RH WIND       PRES   REMARKS
Seattle        CLOUDY    46  37  71 CALM      29.39R
Portland       CLOUDY    42  36  79 SE14      29.40R
Boise          CLOUDY    34  32  92 E7        29.57R FOG     WCI  28
Great Falls    CLOUDY    29  21  72 W7        29.43R WCI  22



USA.gov is the U.S. government's official web portal to all federal, state and local government web resources and services.